sat.trackr.live / text

‹ back to catalog

STARLINK-11385 [DTC]

NORAD 62014 · 2024-213G

PAYLOAD ACTIVE UNKNOWN

§ Identity

Operator
Country
US
Launch date
2024-11-18
Launch site
AFWTR
Launch vehicle
Mass (kg)
RCS (m²)

Purposes: comms

External: N2YO · Heavens-Above · Gunter

§ Orbital elements

Epoch: 2026-09-21T20:38:03.347808Z

Period
91.73 min
Inclination
53.1574°
Eccentricity
0.0001916
Mean motion
15.69772844 rev/d
Perigee alt
358.3 km
Apogee alt
360.8 km
Semi-major
6,737.7 km
B*
8.8444e-4
RAAN
154.3680°
Arg perigee
146.4959°
Mean anomaly
213.6180°
Rev number
10,572

§ Raw data

STARLINK-11385 [DTC]1 62014U 24213G   26264.85976097  .00108253  00000+0  88444-3 0  99952 62014  53.1574 154.3680 0001916 146.4959 213.6180 15.69772844105721

JSON: /api/v1/satellites/62014 · /tle

For live sub-satellite position, see the globe view (requires WebGL).

§ Visibility from observer

Set your observer location to see the next 7 days of passes ≥ 10°. The values pass through the URL so the page stays shareable.

No JS? Fill the form by hand. The geolocation button needs JavaScript.